Time,TemperatureF,DewpointF,PressureIn,WindDirection,WindDirectionDegrees,WindSpeedMPH,WindSpeedGustMPH,Humidity,HourlyPrecipIn,Conditions,Clouds,dailyrainin,SoftwareType,DateUTC
2013-07-13 00:02:00,63.0,61.0,30.16,West,268,0.0,0.0,94,0.00,,,0.00,,2013-07-13 04:02:00,
2013-07-13 00:12:00,63.0,62.0,30.16,West,268,0.0,0.0,95,0.00,,,0.00,,2013-07-13 04:12:00,
2013-07-13 00:22:00,63.0,62.0,30.16,West,268,0.0,1.0,95,0.00,,,0.00,,2013-07-13 04:22:00,
2013-07-13 00:32:00,63.0,62.0,30.16,West,268,0.0,1.0,95,0.00,,,0.00,,2013-07-13 04:32:00,
2013-07-13 00:43:00,62.0,61.0,30.16,West,268,0.0,1.0,96,0.00,,,0.00,,2013-07-13 04:43:00,
2013-07-13 00:52:00,62.0,61.0,30.16,West,281,1.0,1.0,96,0.00,,,0.00,,2013-07-13 04:52:00,
2013-07-13 01:01:00,62.0,61.0,30.16,West,277,0.0,1.0,96,0.00,,,0.00,,2013-07-13 05:01:00,
2013-07-13 01:11:00,62.0,61.0,30.16,West,276,0.0,1.0,95,0.00,,,0.00,,2013-07-13 05:11:00,
2013-07-13 01:42:00,62.0,61.0,30.16,West,276,0.0,1.0,96,0.00,,,0.00,,2013-07-13 05:42:00,
2013-07-13 01:52:00,61.0,60.0,30.16,West,276,0.0,0.0,96,0.00,,,0.00,,2013-07-13 05:52:00,
2013-07-13 02:02:00,61.0,60.0,30.16,West,276,0.0,1.0,97,0.00,,,0.00,,2013-07-13 06:02:00,
2013-07-13 02:11:00,61.0,60.0,30.16,West,277,0.0,0.0,97,0.00,,,0.00,,2013-07-13 06:11:00,
2013-07-13 02:32:00,61.0,60.0,30.16,West,276,0.0,1.0,97,0.00,,,0.00,,2013-07-13 06:32:00,
2013-07-13 02:43:00,61.0,60.0,30.16,West,276,0.0,1.0,97,0.00,,,0.00,,2013-07-13 06:43:00,
2013-07-13 02:52:00,61.0,60.0,30.15,West,276,0.0,0.0,97,0.00,,,0.00,,2013-07-13 06:52:00,
2013-07-13 03:02:00,60.0,59.0,30.15,West,276,0.0,0.0,97,0.00,,,0.00,,2013-07-13 07:02:00,
2013-07-13 03:11:00,60.0,59.0,30.14,West,276,0.0,0.0,97,0.00,,,0.00,,2013-07-13 07:11:00,
2013-07-13 03:22:00,60.0,59.0,30.14,West,276,0.0,0.0,97,0.00,,,0.00,,2013-07-13 07:22:00,
2013-07-13 03:33:00,60.0,59.0,30.14,West,276,0.0,1.0,98,0.00,,,0.00,,2013-07-13 07:33:00,
2013-07-13 03:44:00,61.0,60.0,30.14,West,276,0.0,1.0,97,0.00,,,0.00,,2013-07-13 07:44:00,
2013-07-13 03:53:00,60.0,59.0,30.14,West,276,0.0,0.0,97,0.00,,,0.00,,2013-07-13 07:53:00,
2013-07-13 04:02:00,60.0,59.0,30.14,West,276,0.0,1.0,97,0.00,,,0.00,,2013-07-13 08:02:00,
2013-07-13 04:12:00,60.0,59.0,30.15,SW,217,0.0,1.0,97,0.00,,,0.00,,2013-07-13 08:12:00,
2013-07-13 04:22:00,60.0,59.0,30.15,SW,217,0.0,0.0,98,0.00,,,0.00,,2013-07-13 08:22:00,
2013-07-13 04:33:00,60.0,59.0,30.16,SW,217,0.0,1.0,98,0.00,,,0.00,,2013-07-13 08:33:00,
2013-07-13 04:43:00,60.0,59.0,30.16,SW,217,0.0,0.0,98,0.00,,,0.00,,2013-07-13 08:43:00,
2013-07-13 04:52:00,60.0,59.0,30.15,SW,217,0.0,0.0,98,0.00,,,0.00,,2013-07-13 08:52:00,
2013-07-13 05:02:00,60.0,59.0,30.15,SW,217,0.0,0.0,98,0.00,,,0.00,,2013-07-13 09:02:00,
2013-07-13 05:11:00,60.0,59.0,30.15,SW,217,0.0,0.0,98,0.00,,,0.00,,2013-07-13 09:11:00,
2013-07-13 05:22:00,60.0,59.0,30.15,SW,217,0.0,0.0,98,0.00,,,0.00,,2013-07-13 09:22:00,
2013-07-13 05:33:00,61.0,60.0,30.16,SW,217,0.0,0.0,98,0.00,,,0.00,,2013-07-13 09:33:00,
2013-07-13 05:43:00,61.0,60.0,30.16,SW,217,0.0,0.0,98,0.00,,,0.00,,2013-07-13 09:43:00,
2013-07-13 05:53:00,61.0,60.0,30.16,SW,217,0.0,1.0,98,0.00,,,0.00,,2013-07-13 09:53:00,
2013-07-13 06:01:00,61.0,60.0,30.16,SW,217,0.0,0.0,98,0.00,,,0.00,,2013-07-13 10:01:00,
2013-07-13 06:22:00,61.0,60.0,30.17,SW,217,0.0,0.0,98,0.00,,,0.00,,2013-07-13 10:22:00,
2013-07-13 06:32:00,62.0,61.0,30.17,SW,217,0.0,0.0,98,0.00,,,0.00,,2013-07-13 10:32:00,
2013-07-13 06:43:00,62.0,61.0,30.17,SW,217,0.0,0.0,98,0.00,,,0.00,,2013-07-13 10:43:00,
2013-07-13 06:52:00,62.0,61.0,30.18,SW,217,0.0,1.0,98,0.00,,,0.00,,2013-07-13 10:52:00,
2013-07-13 07:02:00,62.0,61.0,30.17,SW,217,0.0,0.0,98,0.00,,,0.00,,2013-07-13 11:02:00,
2013-07-13 07:11:00,62.0,61.0,30.17,SSW,210,0.0,1.0,98,0.00,,,0.00,,2013-07-13 11:11:00,
2013-07-13 07:22:00,63.0,62.0,30.18,SSW,210,0.0,0.0,98,0.00,,,0.00,,2013-07-13 11:22:00,
2013-07-13 07:32:00,63.0,62.0,30.18,SSW,210,0.0,0.0,98,0.00,,,0.00,,2013-07-13 11:32:00,
2013-07-13 07:43:00,63.0,62.0,30.18,SSW,210,0.0,1.0,98,0.00,,,0.00,,2013-07-13 11:43:00,
2013-07-13 07:52:00,64.0,63.0,30.19,SSW,210,0.0,1.0,98,0.00,,,0.00,,2013-07-13 11:52:00,
2013-07-13 08:02:00,64.0,63.0,30.18,SSW,210,0.0,0.0,98,0.00,,,0.00,,2013-07-13 12:02:00,
2013-07-13 08:12:00,65.0,64.0,30.18,SSW,195,1.0,1.0,98,0.00,,,0.00,,2013-07-13 12:12:00,
2013-07-13 08:32:00,66.0,65.0,30.19,SSE,163,1.0,2.0,97,0.00,,,0.00,,2013-07-13 12:32:00,
2013-07-13 08:43:00,67.0,66.0,30.19,SSE,148,1.0,2.0,96,0.00,,,0.00,,2013-07-13 12:43:00,
2013-07-13 09:01:00,68.0,67.0,30.19,SE,138,2.0,4.0,95,0.00,,,0.00,,2013-07-13 13:01:00,
2013-07-13 09:43:00,73.0,67.0,30.20,SE,133,4.0,6.0,82,0.00,,,0.00,,2013-07-13 13:43:00,
2013-07-13 09:53:00,73.0,67.0,30.20,ESE,120,7.0,10.0,82,0.00,,,0.00,,2013-07-13 13:53:00,
2013-07-13 10:22:00,74.0,68.0,30.20,ESE,115,6.0,9.0,82,0.00,,,0.00,,2013-07-13 14:22:00,
2013-07-13 10:32:00,74.0,68.0,30.20,ESE,123,3.0,9.0,81,0.00,,,0.00,,2013-07-13 14:32:00,
2013-07-13 10:53:00,75.0,69.0,30.20,ESE,106,4.0,7.0,81,0.00,,,0.00,,2013-07-13 14:53:00,
2013-07-13 11:02:00,75.0,68.0,30.20,East,100,2.0,8.0,79,0.00,,,0.00,,2013-07-13 15:02:00,
2013-07-13 11:12:00,75.0,68.0,30.20,ESE,106,4.0,8.0,78,0.00,,,0.00,,2013-07-13 15:12:00,
2013-07-13 11:22:00,75.0,68.0,30.20,SSW,210,5.0,10.0,79,0.00,,,0.00,,2013-07-13 15:22:00,
2013-07-13 11:33:00,75.0,68.0,30.20,SE,126,3.0,9.0,80,0.00,,,0.00,,2013-07-13 15:33:00,
2013-07-13 11:43:00,74.0,68.0,30.20,ESE,118,5.0,9.0,82,0.00,,,0.00,,2013-07-13 15:43:00,
2013-07-13 11:53:00,74.0,68.0,30.20,SE,128,3.0,8.0,81,0.00,,,0.00,,2013-07-13 15:53:00,
2013-07-13 12:02:00,75.0,68.0,30.20,South,185,4.0,7.0,80,0.00,,,0.00,,2013-07-13 16:02:00,
2013-07-13 12:12:00,75.0,68.0,30.20,SE,144,4.0,7.0,80,0.00,,,0.00,,2013-07-13 16:12:00,
2013-07-13 12:22:00,75.0,69.0,30.21,ESE,120,3.0,7.0,81,0.00,,,0.00,,2013-07-13 16:22:00,
2013-07-13 12:33:00,75.0,69.0,30.21,East,98,3.0,6.0,81,0.00,,,0.00,,2013-07-13 16:33:00,
2013-07-13 12:43:00,75.0,69.0,30.21,East,99,2.0,6.0,81,0.00,,,0.00,,2013-07-13 16:43:00,
2013-07-13 12:53:00,75.0,68.0,30.22,SSE,155,3.0,4.0,80,0.00,,,0.00,,2013-07-13 16:53:00,
2013-07-13 13:01:00,75.0,68.0,30.21,ESE,114,1.0,3.0,80,0.00,,,0.00,,2013-07-13 17:01:00,
2013-07-13 13:12:00,75.0,69.0,30.22,East,89,3.0,7.0,81,0.00,,,0.00,,2013-07-13 17:12:00,
2013-07-13 13:22:00,75.0,69.0,30.22,ESE,122,1.0,5.0,81,0.00,,,0.00,,2013-07-13 17:22:00,
2013-07-13 13:33:00,75.0,69.0,30.22,ESE,113,2.0,5.0,83,0.00,,,0.00,,2013-07-13 17:33:00,
2013-07-13 13:43:00,75.0,69.0,30.21,ESE,109,1.0,5.0,83,0.00,,,0.00,,2013-07-13 17:43:00,
2013-07-13 13:52:00,75.0,68.0,30.22,ESE,106,1.0,4.0,80,0.00,,,0.00,,2013-07-13 17:52:00,
2013-07-13 14:01:00,75.0,68.0,30.21,ESE,105,2.0,4.0,79,0.00,,,0.00,,2013-07-13 18:01:00,
2013-07-13 14:11:00,77.0,71.0,30.20,SE,137,3.0,5.0,82,0.00,,,0.00,,2013-07-13 18:11:00,
2013-07-13 14:22:00,78.0,70.0,30.21,East,82,3.0,7.0,76,0.00,,,0.00,,2013-07-13 18:22:00,
2013-07-13 14:32:00,78.0,70.0,30.20,SE,130,3.0,7.0,76,0.00,,,0.00,,2013-07-13 18:32:00,
2013-07-13 14:44:00,77.0,70.0,30.21,SSE,167,2.0,7.0,78,0.00,,,0.00,,2013-07-13 18:44:00,
2013-07-13 14:53:00,77.0,71.0,30.21,ESE,107,4.0,10.0,81,0.00,,,0.00,,2013-07-13 18:53:00,
2013-07-13 15:02:00,77.0,70.0,30.21,SSE,153,4.0,9.0,80,0.00,,,0.00,,2013-07-13 19:02:00,
2013-07-13 15:11:00,77.0,71.0,30.20,ENE,59,3.0,7.0,81,0.00,,,0.00,,2013-07-13 19:11:00,
2013-07-13 15:22:00,77.0,71.0,30.21,ESE,104,1.0,4.0,82,0.00,,,0.00,,2013-07-13 19:22:00,
2013-07-13 15:32:00,78.0,71.0,30.20,East,100,5.0,8.0,79,0.00,,,0.00,,2013-07-13 19:32:00,
2013-07-13 15:44:00,77.0,70.0,30.20,SE,142,5.0,9.0,79,0.00,,,0.00,,2013-07-13 19:44:00,
2013-07-13 15:52:00,78.0,71.0,30.20,ESE,119,3.0,7.0,79,0.00,,,0.00,,2013-07-13 19:52:00,
2013-07-13 16:01:00,78.0,71.0,30.20,SE,145,5.0,8.0,79,0.00,,,0.00,,2013-07-13 20:01:00,
2013-07-13 16:11:00,77.0,70.0,30.20,ESE,119,5.0,10.0,78,0.00,,,0.00,,2013-07-13 20:11:00,
2013-07-13 16:22:00,77.0,71.0,30.20,ESE,122,6.0,9.0,81,0.00,,,0.00,,2013-07-13 20:22:00,
2013-07-13 16:33:00,77.0,70.0,30.20,SSE,150,5.0,8.0,79,0.00,,,0.00,,2013-07-13 20:33:00,
2013-07-13 16:43:00,77.0,71.0,30.20,SE,138,4.0,9.0,81,0.00,,,0.00,,2013-07-13 20:43:00,
2013-07-13 16:52:00,77.0,70.0,30.20,ESE,112,4.0,7.0,80,0.00,,,0.00,,2013-07-13 20:52:00,
2013-07-13 17:02:00,77.0,70.0,30.20,ESE,120,4.0,7.0,80,0.00,,,0.00,,2013-07-13 21:02:00,
2013-07-13 17:12:00,77.0,70.0,30.20,ESE,116,5.0,10.0,80,0.00,,,0.00,,2013-07-13 21:12:00,
2013-07-13 17:22:00,78.0,71.0,30.20,SE,131,5.0,9.0,80,0.00,,,0.00,,2013-07-13 21:22:00,
2013-07-13 17:32:00,78.0,71.0,30.20,SSE,154,4.0,7.0,80,0.00,,,0.00,,2013-07-13 21:32:00,
2013-07-13 17:43:00,78.0,71.0,30.20,ESE,110,4.0,7.0,79,0.00,,,0.00,,2013-07-13 21:43:00,
2013-07-13 17:53:00,78.0,72.0,30.20,ESE,102,3.0,7.0,81,0.00,,,0.00,,2013-07-13 21:53:00,
2013-07-13 18:01:00,78.0,71.0,30.20,ESE,110,5.0,8.0,80,0.00,,,0.00,,2013-07-13 22:01:00,
2013-07-13 18:12:00,78.0,71.0,30.20,ESE,117,4.0,7.0,78,0.00,,,0.00,,2013-07-13 22:12:00,
2013-07-13 18:22:00,78.0,71.0,30.20,ESE,122,4.0,6.0,78,0.00,,,0.00,,2013-07-13 22:22:00,
2013-07-13 18:32:00,78.0,70.0,30.20,SE,128,5.0,7.0,77,0.00,,,0.00,,2013-07-13 22:32:00,
2013-07-13 18:43:00,78.0,71.0,30.20,SE,140,3.0,6.0,78,0.00,,,0.00,,2013-07-13 22:43:00,
2013-07-13 19:02:00,78.0,71.0,30.20,SE,145,1.0,7.0,79,0.00,,,0.00,,2013-07-13 23:02:00,
2013-07-13 19:11:00,78.0,71.0,30.20,SE,141,2.0,4.0,78,0.00,,,0.00,,2013-07-13 23:11:00,
2013-07-13 19:22:00,78.0,71.0,30.21,SSE,147,2.0,4.0,78,0.00,,,0.00,,2013-07-13 23:22:00,
2013-07-13 19:32:00,78.0,71.0,30.20,ESE,119,1.0,4.0,79,0.00,,,0.00,,2013-07-13 23:32:00,
2013-07-13 19:42:00,78.0,71.0,30.21,SE,127,1.0,3.0,80,0.00,,,0.00,,2013-07-13 23:42:00,
2013-07-13 19:53:00,77.0,71.0,30.21,SE,125,2.0,4.0,82,0.00,,,0.00,,2013-07-13 23:53:00,
2013-07-13 20:01:00,77.0,71.0,30.20,SE,127,3.0,4.0,81,0.00,,,0.00,,2013-07-14 00:01:00,
2013-07-13 20:12:00,77.0,71.0,30.21,ESE,113,3.0,5.0,81,0.00,,,0.00,,2013-07-14 00:12:00,
2013-07-13 20:22:00,77.0,71.0,30.21,ESE,123,2.0,3.0,81,0.00,,,0.00,,2013-07-14 00:22:00,
2013-07-13 20:42:00,76.0,70.0,30.21,ESE,121,2.0,3.0,83,0.00,,,0.00,,2013-07-14 00:42:00,
2013-07-13 20:53:00,76.0,71.0,30.21,SE,124,0.0,2.0,84,0.00,,,0.00,,2013-07-14 00:53:00,
2013-07-13 21:02:00,75.0,70.0,30.21,ESE,103,1.0,1.0,85,0.00,,,0.00,,2013-07-14 01:02:00,
2013-07-13 21:11:00,75.0,71.0,30.21,ESE,103,0.0,1.0,87,0.00,,,0.00,,2013-07-14 01:11:00,
2013-07-13 21:22:00,74.0,70.0,30.22,ESE,103,0.0,0.0,88,0.00,,,0.00,,2013-07-14 01:22:00,
2013-07-13 21:32:00,73.0,70.0,30.22,ESE,104,0.0,0.0,89,0.00,,,0.00,,2013-07-14 01:32:00,
2013-07-13 21:43:00,72.0,70.0,30.22,ESE,104,0.0,1.0,92,0.00,,,0.00,,2013-07-14 01:43:00,
2013-07-13 21:52:00,72.0,70.0,30.22,ESE,104,0.0,1.0,93,0.00,,,0.00,,2013-07-14 01:52:00,
2013-07-13 22:02:00,72.0,70.0,30.23,ESE,104,0.0,0.0,93,0.00,,,0.00,,2013-07-14 02:02:00,
2013-07-13 22:11:00,72.0,70.0,30.23,SSE,155,0.0,1.0,94,0.00,,,0.00,,2013-07-14 02:11:00,
2013-07-13 22:22:00,72.0,70.0,30.23,SSE,167,2.0,2.0,93,0.00,,,0.00,,2013-07-14 02:22:00,
2013-07-13 22:32:00,72.0,70.0,30.23,South,169,0.0,2.0,92,0.00,,,0.00,,2013-07-14 02:32:00,
2013-07-13 22:43:00,72.0,70.0,30.24,South,169,0.0,0.0,92,0.00,,,0.00,,2013-07-14 02:43:00,
2013-07-13 22:53:00,72.0,70.0,30.24,South,169,0.0,0.0,93,0.00,,,0.00,,2013-07-14 02:53:00,
2013-07-13 23:02:00,72.0,70.0,30.24,South,169,0.0,0.0,93,0.00,,,0.00,,2013-07-14 03:02:00,
2013-07-13 23:11:00,71.0,69.0,30.24,South,172,1.0,2.0,93,0.00,,,0.00,,2013-07-14 03:11:00,
2013-07-13 23:22:00,72.0,70.0,30.24,South,173,1.0,3.0,93,0.00,,,0.00,,2013-07-14 03:22:00,
2013-07-13 23:32:00,71.0,69.0,30.24,South,176,0.0,1.0,93,0.00,,,0.00,,2013-07-14 03:32:00,
2013-07-13 23:43:00,71.0,69.0,30.24,South,175,0.0,1.0,94,0.00,,,0.00,,2013-07-14 03:43:00,
2013-07-13 23:53:00,70.0,68.0,30.24,South,175,0.0,0.0,94,0.00,,,0.00,,2013-07-14 03:53:00,